Regional Weather Roundup
Issued by NWS

Home | Current Version | Previous Version | Graphics & Text | Print | Product List | Glossary On
Versions: 1 2 3 4 5 6 7 8 9 10 11 12 13 14 15 16 17 18 19 20 21 22 23 24 25 26 27 28 29 30 31 32 33 34 35 36 37 38 39 40 41 42 43 44 45 46 47 48
000
ASUS45 KCYS 280510
RWRWY

WYOMING REGIONAL WEATHER ROUNDUP
NATIONAL WEATHER SERVICE CHEYENNE WY
1000 PM MST FRI FEB 27 2015

NOTE:  "FAIR" INDICATES FEW OR NO CLOUDS BELOW 12,000 FEET
WITH NO SIGNIFICANT WEATHER AND/OR OBSTRUCTIONS TO VISIBILITY.

WYZ001-280600-
YELLOWSTONE NATIONAL PARK

CITY           SKY/WX    TMP DP  RH WIND       PRES   REMARKS
LK YELLOWSTONE   N/A      1  -3  83 CALM      29.76R
W YELLOWSTONE  NOT AVBL

$$
WYZ002>013-054>058-071-098>099-280600-
NORTHERN WYOMING

CITY           SKY/WX    TMP DP  RH WIND       PRES   REMARKS
JACKSON        CLOUDY    16  14  93 N9        29.75S WCI   4
CODY           MOCLDY    18   7  62 N6        29.91R WCI   9
GREYBULL       CLOUDY    25  11  55 NW3       29.94R
WORLAND        FAIR      20  15  81 CALM      29.93R
SHERIDAN       CLOUDY    13  -1  54 CALM      29.98R
BUFFALO        CLOUDY    15  -2  46 N9        29.92R WCI   3
GILLETTE       FAIR      12   7  80 W8        29.92R WCI   0
HULETT         MOCLDY    18  10  73 W7        29.93S WCI   8
NEWCASTLE      FAIR      16   9  73 E13       29.95F WCI   2

$$
WYZ014>020-022>026-101>103-280600-
CENTRAL WYOMING

CITY           SKY/WX    TMP DP  RH WIND       PRES   REMARKS
BIG PINEY      LGT SNOW  17  13  84 NE5       29.76R FOG     WCI  10
PINEDALE       LGT SNOW  12   9  85 NW3       29.76S
DUBOIS         LGT SNOW  10   9  92 CALM      29.78R
LANDER         CLOUDY    14   4  64 W5        29.87R WCI   6
RIVERTON       CLOUDY    14   7  73 SW7       29.88R WCI   4
CASPER         FAIR      14   9  80 E5        29.86R WCI   6
DOUGLAS        FAIR      11   6  81 SE7       29.90R WCI   0

$$
WYZ021-027>030-104>119-280600-
SOUTHERN WYOMING

CITY           SKY/WX    TMP DP  RH WIND       PRES   REMARKS
EVANSTON       FAIR      24  18  77 CALM      29.71R
FORT BRIDGER   CLOUDY    23  20  87 S8        29.74S WCI  14
ROCK SPRINGS   FAIR      22  14  71 S5        29.74R WCI  16
DIXON          FAIR      19  11  69 E6        29.80R WCI  11
RAWLINS        FAIR      11   5  77 NW3       29.77R
SARATOGA       FAIR      12   7  79 SE3       29.77S
LARAMIE        FAIR       4  -1  80 S8        29.76R WCI  -9
CHEYENNE       CLOUDY     8   4  83 S16       29.84F WCI -10
TORRINGTON     FAIR      13   6  74 SE10      29.96R WCI   0
PINE BLUFFS    FAIR       7   3  85 MISG      29.94S

$$


USA.gov is the U.S. government's official web portal to all federal, state and local government web resources and services.